Location: Byhalia Creek
(34.8270°N, 89.8040°W)
Time: 09:08:43
(UTC+00:00)

Envisat - Pass Details

Date: 22 April 2026
Orbit: 761 x 762 km, 98.4° (Epoch: 15 May)

Event Time Altitude Azimuth Distance (km) Brightness Sun altitude
Rises 08:35:25 0° 12° (NNE) 3,228 7.0 -29.9°
Reaches altitude 10° 08:37:43 10° 12° (NNE) 2,298 6.1 -29.6°
Enters shadow 08:41:56 62° 6° (N) 852 3.3 -28.9°
